Time,TemperatureF,DewpointF,PressureIn,WindDirection,WindDirectionDegrees,WindSpeedMPH,WindSpeedGustMPH,Humidity,HourlyPrecipIn,Conditions,Clouds,dailyrainin,SoftwareType,DateUTC
2013-02-16 00:02:00,43.0,38.0,29.96,WNW,299,6.0,12.0,84,0.00,,,0.00,,2013-02-16 05:02:00,
2013-02-16 00:12:00,43.0,38.0,29.96,WNW,299,6.0,12.0,84,0.00,,,0.00,,2013-02-16 05:12:00,
2013-02-16 00:22:00,42.0,38.0,29.96,WNW,300,3.0,9.0,84,0.00,,,0.00,,2013-02-16 05:22:00,
2013-02-16 00:32:00,42.0,38.0,29.96,WNW,300,3.0,9.0,84,0.00,,,0.00,,2013-02-16 05:32:00,
2013-02-16 00:42:00,42.0,38.0,29.96,WNW,300,3.0,9.0,84,0.00,,,0.00,,2013-02-16 05:42:00,
2013-02-16 00:52:00,42.0,37.0,29.96,West,264,3.0,9.0,83,0.00,,,0.00,,2013-02-16 05:52:00,
2013-02-16 01:02:00,42.0,37.0,29.96,West,264,3.0,9.0,83,0.00,,,0.00,,2013-02-16 06:02:00,
2013-02-16 01:11:00,42.0,37.0,29.96,West,264,3.0,9.0,83,0.00,,,0.00,,2013-02-16 06:11:00,
2013-02-16 01:22:00,42.0,36.0,29.96,NNE,25,4.0,11.0,80,0.00,,,0.00,,2013-02-16 06:22:00,
2013-02-16 01:32:00,42.0,36.0,29.96,NNE,25,4.0,11.0,80,0.00,,,0.00,,2013-02-16 06:32:00,
2013-02-16 01:42:00,42.0,36.0,29.96,NNE,25,4.0,11.0,80,0.00,,,0.00,,2013-02-16 06:42:00,
2013-02-16 01:52:00,42.0,36.0,29.96,WNW,294,5.0,12.0,80,0.00,,,0.00,,2013-02-16 06:52:00,
2013-02-16 02:02:00,42.0,36.0,29.96,WNW,294,5.0,12.0,80,0.00,,,0.00,,2013-02-16 07:02:00,
2013-02-16 02:11:00,42.0,36.0,29.96,WNW,294,5.0,12.0,80,0.00,,,0.00,,2013-02-16 07:11:00,
2013-02-16 02:21:00,42.0,37.0,29.95,WNW,297,4.0,11.0,81,0.00,,,0.00,,2013-02-16 07:21:00,
2013-02-16 02:32:00,42.0,37.0,29.95,WNW,297,4.0,11.0,81,0.00,,,0.00,,2013-02-16 07:32:00,
2013-02-16 02:42:00,42.0,37.0,29.95,WNW,297,4.0,11.0,81,0.00,,,0.00,,2013-02-16 07:42:00,
2013-02-16 02:53:00,42.0,37.0,29.94,WNW,300,4.0,9.0,82,0.00,,,0.00,,2013-02-16 07:53:00,
2013-02-16 03:01:00,42.0,37.0,29.94,WNW,300,4.0,9.0,82,0.00,,,0.00,,2013-02-16 08:01:00,
2013-02-16 03:11:00,42.0,37.0,29.94,WNW,300,4.0,9.0,82,0.00,,,0.00,,2013-02-16 08:11:00,
2013-02-16 03:21:00,41.0,37.0,29.93,NNE,22,3.0,9.0,84,0.00,,,0.00,,2013-02-16 08:21:00,
2013-02-16 03:31:00,41.0,37.0,29.93,NNE,22,3.0,9.0,84,0.00,,,0.00,,2013-02-16 08:31:00,
2013-02-16 03:42:00,41.0,37.0,29.93,NNE,22,3.0,9.0,84,0.00,,,0.00,,2013-02-16 08:42:00,
2013-02-16 03:52:00,41.0,37.0,29.93,NNE,16,4.0,9.0,84,0.00,,,0.00,,2013-02-16 08:52:00,
2013-02-16 04:02:00,41.0,37.0,29.93,NNE,16,4.0,9.0,84,0.00,,,0.00,,2013-02-16 09:02:00,
2013-02-16 04:11:00,41.0,37.0,29.93,NNE,16,4.0,9.0,84,0.00,,,0.00,,2013-02-16 09:11:00,
2013-02-16 04:21:00,41.0,37.0,29.94,NW,326,3.0,13.0,85,0.00,,,0.00,,2013-02-16 09:21:00,
2013-02-16 04:32:00,41.0,37.0,29.94,NW,326,3.0,13.0,85,0.00,,,0.00,,2013-02-16 09:32:00,
2013-02-16 04:42:00,41.0,37.0,29.94,NW,326,3.0,13.0,85,0.00,,,0.00,,2013-02-16 09:42:00,
2013-02-16 04:52:00,40.0,36.0,29.93,NNW,346,6.0,7.0,86,0.00,,,0.00,,2013-02-16 09:52:00,
2013-02-16 05:01:00,40.0,36.0,29.93,NNW,346,6.0,7.0,86,0.00,,,0.00,,2013-02-16 10:01:00,
2013-02-16 05:11:00,40.0,36.0,29.93,NNW,346,6.0,7.0,86,0.00,,,0.00,,2013-02-16 10:11:00,
2013-02-16 05:21:00,40.0,36.0,29.93,NNW,335,3.0,10.0,86,0.00,,,0.00,,2013-02-16 10:21:00,
2013-02-16 05:32:00,40.0,36.0,29.93,NNW,335,3.0,10.0,86,0.00,,,0.00,,2013-02-16 10:32:00,
2013-02-16 05:42:00,40.0,36.0,29.93,NNW,335,3.0,10.0,86,0.00,,,0.00,,2013-02-16 10:42:00,
2013-02-16 05:52:00,39.0,35.0,29.93,NNE,25,3.0,10.0,87,0.00,,,0.00,,2013-02-16 10:52:00,
2013-02-16 06:02:00,39.0,35.0,29.93,NNE,25,3.0,10.0,87,0.00,,,0.00,,2013-02-16 11:02:00,
2013-02-16 06:11:00,39.0,35.0,29.93,NNE,25,3.0,10.0,87,0.00,,,0.00,,2013-02-16 11:11:00,
2013-02-16 06:22:00,39.0,36.0,29.93,NNW,331,3.0,11.0,88,0.00,,,0.00,,2013-02-16 11:22:00,
2013-02-16 06:32:00,39.0,36.0,29.93,NNW,331,3.0,11.0,88,0.00,,,0.00,,2013-02-16 11:32:00,
2013-02-16 06:42:00,39.0,36.0,29.93,NNW,331,3.0,11.0,88,0.00,,,0.00,,2013-02-16 11:42:00,
2013-02-16 06:52:00,39.0,36.0,29.93,North,11,6.0,12.0,89,0.00,,,0.00,,2013-02-16 11:52:00,
2013-02-16 07:02:00,39.0,36.0,29.93,North,11,6.0,12.0,89,0.00,,,0.00,,2013-02-16 12:02:00,
2013-02-16 07:12:00,39.0,36.0,29.93,North,11,6.0,12.0,89,0.00,,,0.00,,2013-02-16 12:12:00,
2013-02-16 07:22:00,39.0,36.0,29.93,NNE,32,9.0,12.0,89,0.00,,,0.00,,2013-02-16 12:22:00,
2013-02-16 07:32:00,39.0,36.0,29.93,NNE,32,9.0,12.0,89,0.00,,,0.00,,2013-02-16 12:32:00,
2013-02-16 07:42:00,39.0,36.0,29.93,NNE,32,9.0,12.0,89,0.00,,,0.00,,2013-02-16 12:42:00,
2013-02-16 07:52:00,38.0,35.0,29.92,North,356,9.0,14.0,89,0.00,,,0.00,,2013-02-16 12:52:00,
2013-02-16 08:02:00,38.0,35.0,29.92,North,356,9.0,14.0,89,0.00,,,0.00,,2013-02-16 13:02:00,
2013-02-16 08:12:00,38.0,35.0,29.92,North,356,9.0,14.0,89,0.00,,,0.00,,2013-02-16 13:12:00,
2013-02-16 08:22:00,39.0,36.0,29.93,NNW,345,7.0,14.0,89,0.00,,,0.00,,2013-02-16 13:22:00,
2013-02-16 08:32:00,39.0,36.0,29.93,NNW,345,7.0,14.0,89,0.00,,,0.00,,2013-02-16 13:32:00,
2013-02-16 08:42:00,39.0,36.0,29.93,NNW,345,7.0,14.0,89,0.00,,,0.00,,2013-02-16 13:42:00,
2013-02-16 08:52:00,39.0,36.0,29.92,NNE,13,6.0,12.0,88,0.00,,,0.00,,2013-02-16 13:52:00,
2013-02-16 09:01:00,39.0,36.0,29.92,NNE,13,6.0,12.0,88,0.00,,,0.00,,2013-02-16 14:01:00,
2013-02-16 09:11:00,39.0,36.0,29.92,NNE,13,6.0,12.0,88,0.00,,,0.00,,2013-02-16 14:11:00,
2013-02-16 09:21:00,39.0,35.0,29.93,NNW,331,5.0,13.0,87,0.00,,,0.00,,2013-02-16 14:21:00,
2013-02-16 09:32:00,39.0,35.0,29.93,NNW,331,5.0,13.0,87,0.00,,,0.00,,2013-02-16 14:32:00,
2013-02-16 09:42:00,39.0,35.0,29.93,NNW,331,5.0,13.0,87,0.00,,,0.00,,2013-02-16 14:42:00,
2013-02-16 09:52:00,39.0,35.0,29.93,NW,319,4.0,15.0,87,0.00,,,0.00,,2013-02-16 14:52:00,
2013-02-16 10:02:00,39.0,35.0,29.93,NW,319,4.0,15.0,87,0.00,,,0.00,,2013-02-16 15:02:00,
2013-02-16 10:11:00,39.0,35.0,29.93,NW,319,4.0,15.0,87,0.00,,,0.00,,2013-02-16 15:11:00,
2013-02-16 10:22:00,39.0,35.0,29.92,NNW,340,8.0,16.0,85,0.00,,,0.00,,2013-02-16 15:22:00,
2013-02-16 10:32:00,39.0,35.0,29.92,NNW,340,8.0,16.0,85,0.00,,,0.00,,2013-02-16 15:32:00,
2013-02-16 10:42:00,39.0,35.0,29.92,NNW,340,8.0,16.0,85,0.00,,,0.00,,2013-02-16 15:42:00,
2013-02-16 10:52:00,39.0,35.0,29.92,North,11,11.0,15.0,85,0.00,,,0.00,,2013-02-16 15:52:00,
2013-02-16 11:01:00,39.0,35.0,29.92,North,11,11.0,15.0,85,0.00,,,0.00,,2013-02-16 16:01:00,
2013-02-16 11:11:00,39.0,35.0,29.92,North,11,11.0,15.0,85,0.00,,,0.00,,2013-02-16 16:11:00,
2013-02-16 11:21:00,39.0,36.0,29.91,NNW,346,8.0,14.0,88,0.00,,,0.00,,2013-02-16 16:21:00,
2013-02-16 11:32:00,39.0,36.0,29.91,NNW,346,8.0,14.0,88,0.00,,,0.00,,2013-02-16 16:32:00,
2013-02-16 11:42:00,39.0,36.0,29.91,NNW,346,8.0,14.0,88,0.00,,,0.00,,2013-02-16 16:42:00,
2013-02-16 11:52:00,38.0,35.0,29.91,NNW,333,6.0,13.0,90,0.00,,,0.00,,2013-02-16 16:52:00,
2013-02-16 12:01:00,38.0,35.0,29.91,NNW,333,6.0,13.0,90,0.00,,,0.00,,2013-02-16 17:01:00,
2013-02-16 12:11:00,38.0,35.0,29.91,NNW,333,6.0,13.0,90,0.00,,,0.00,,2013-02-16 17:11:00,
2013-02-16 12:22:00,38.0,36.0,29.88,North,6,8.0,11.0,92,0.00,,,0.00,,2013-02-16 17:22:00,
2013-02-16 12:32:00,38.0,36.0,29.88,North,6,8.0,11.0,92,0.00,,,0.00,,2013-02-16 17:32:00,
2013-02-16 12:42:00,38.0,36.0,29.88,North,6,8.0,11.0,92,0.00,,,0.00,,2013-02-16 17:42:00,
2013-02-16 12:52:00,38.0,36.0,29.88,North,4,5.0,11.0,93,0.01,,,0.01,,2013-02-16 17:52:00,
2013-02-16 13:02:00,38.0,36.0,29.88,North,4,5.0,11.0,93,0.01,,,0.01,,2013-02-16 18:02:00,
2013-02-16 13:11:00,37.0,35.0,29.88,North,352,7.0,10.0,93,0.02,,,0.02,,2013-02-16 18:11:00,
2013-02-16 13:21:00,37.0,35.0,29.88,North,352,7.0,10.0,93,0.02,,,0.02,,2013-02-16 18:21:00,
2013-02-16 13:33:00,37.0,35.0,29.88,North,352,7.0,10.0,93,0.02,,,0.02,,2013-02-16 18:33:00,
2013-02-16 13:42:00,37.0,35.0,29.88,North,352,7.0,10.0,93,0.02,,,0.02,,2013-02-16 18:42:00,
2013-02-16 13:52:00,36.0,34.0,29.86,NNW,341,5.0,13.0,93,0.04,,,0.05,,2013-02-16 18:52:00,
2013-02-16 14:02:00,36.0,34.0,29.86,NNW,341,5.0,13.0,93,0.04,,,0.05,,2013-02-16 19:02:00,
2013-02-16 14:11:00,36.0,34.0,29.86,NNW,341,5.0,13.0,93,0.04,,,0.05,,2013-02-16 19:11:00,
2013-02-16 14:22:00,36.0,34.0,29.86,NNW,346,6.0,11.0,94,0.05,,,0.07,,2013-02-16 19:22:00,
2013-02-16 14:31:00,36.0,35.0,29.85,ENE,62,1.0,9.0,95,0.05,,,0.10,,2013-02-16 19:31:00,
2013-02-16 14:32:00,36.0,34.0,29.86,NNW,346,6.0,11.0,94,0.05,,,0.07,,2013-02-16 19:32:00,
2013-02-16 14:42:00,36.0,34.0,29.86,NNW,346,6.0,11.0,94,0.05,,,0.07,,2013-02-16 19:42:00,
2013-02-16 14:52:00,36.0,35.0,29.85,ENE,62,1.0,9.0,95,0.05,,,0.10,,2013-02-16 19:52:00,
2013-02-16 15:01:00,36.0,35.0,29.85,ENE,62,1.0,9.0,95,0.05,,,0.10,,2013-02-16 20:01:00,
2013-02-16 15:11:00,36.0,35.0,29.85,ENE,62,1.0,9.0,95,0.05,,,0.10,,2013-02-16 20:11:00,
2013-02-16 15:22:00,36.0,35.0,29.85,ENE,62,1.0,9.0,95,0.05,,,0.10,,2013-02-16 20:22:00,
2013-02-16 15:52:00,37.0,35.0,29.83,North,8,7.0,12.0,94,0.02,,,0.12,,2013-02-16 20:52:00,
2013-02-16 16:02:00,37.0,35.0,29.83,North,8,7.0,12.0,94,0.02,,,0.12,,2013-02-16 21:02:00,
2013-02-16 16:11:00,37.0,35.0,29.83,North,8,7.0,12.0,94,0.02,,,0.12,,2013-02-16 21:11:00,
2013-02-16 16:21:00,37.0,35.0,29.82,North,6,5.0,11.0,91,0.00,,,0.12,,2013-02-16 21:21:00,
2013-02-16 16:32:00,37.0,35.0,29.82,North,6,5.0,11.0,91,0.00,,,0.12,,2013-02-16 21:32:00,
2013-02-16 16:42:00,37.0,35.0,29.82,North,6,5.0,11.0,91,0.00,,,0.12,,2013-02-16 21:42:00,
2013-02-16 16:52:00,38.0,35.0,29.81,NNW,331,2.0,10.0,90,0.00,,,0.12,,2013-02-16 21:52:00,
2013-02-16 17:01:00,38.0,35.0,29.81,NNW,331,2.0,10.0,90,0.00,,,0.12,,2013-02-16 22:01:00,
2013-02-16 17:11:00,38.0,35.0,29.81,NNW,331,2.0,10.0,90,0.00,,,0.12,,2013-02-16 22:11:00,
2013-02-16 17:21:00,38.0,35.0,29.81,WNW,302,6.0,16.0,89,0.00,,,0.12,,2013-02-16 22:21:00,
2013-02-16 17:32:00,38.0,35.0,29.81,WNW,302,6.0,16.0,89,0.00,,,0.12,,2013-02-16 22:32:00,
2013-02-16 17:42:00,38.0,35.0,29.81,WNW,302,6.0,16.0,89,0.00,,,0.12,,2013-02-16 22:42:00,
2013-02-16 17:52:00,37.0,32.0,29.79,WNW,300,11.0,18.0,83,0.00,,,0.12,,2013-02-16 22:52:00,
2013-02-16 18:02:00,37.0,32.0,29.79,WNW,300,11.0,18.0,83,0.00,,,0.12,,2013-02-16 23:02:00,
2013-02-16 18:11:00,37.0,32.0,29.79,WNW,300,11.0,18.0,83,0.00,,,0.12,,2013-02-16 23:11:00,
2013-02-16 18:21:00,37.0,31.0,29.80,NNE,27,9.0,18.0,80,0.00,,,0.12,,2013-02-16 23:21:00,
2013-02-16 18:32:00,37.0,31.0,29.80,NNE,27,9.0,18.0,80,0.00,,,0.12,,2013-02-16 23:32:00,
2013-02-16 18:42:00,37.0,31.0,29.80,NNE,27,9.0,18.0,80,0.00,,,0.12,,2013-02-16 23:42:00,
2013-02-16 18:52:00,36.0,29.0,29.80,NNW,336,11.0,21.0,76,0.00,,,0.12,,2013-02-16 23:52:00,
2013-02-16 19:02:00,36.0,29.0,29.80,NNW,336,11.0,21.0,76,0.00,,,0.12,,2013-02-17 00:02:00,
2013-02-16 19:12:00,36.0,29.0,29.80,NNW,336,11.0,21.0,76,0.00,,,0.12,,2013-02-17 00:12:00,
2013-02-16 19:22:00,36.0,29.0,29.80,NW,326,7.0,24.0,77,0.00,,,0.12,,2013-02-17 00:22:00,
2013-02-16 19:32:00,36.0,29.0,29.80,NW,326,7.0,24.0,77,0.00,,,0.12,,2013-02-17 00:32:00,
2013-02-16 19:42:00,36.0,29.0,29.80,NW,326,7.0,24.0,77,0.00,,,0.12,,2013-02-17 00:42:00,
2013-02-16 19:52:00,34.0,29.0,29.81,NNW,328,6.0,21.0,82,0.00,,,0.12,,2013-02-17 00:52:00,
2013-02-16 20:01:00,34.0,29.0,29.81,NNW,328,6.0,21.0,82,0.00,,,0.12,,2013-02-17 01:01:00,
2013-02-16 20:11:00,34.0,29.0,29.81,NNW,328,6.0,21.0,82,0.00,,,0.12,,2013-02-17 01:11:00,
2013-02-16 20:21:00,33.0,30.0,29.80,NNW,339,9.0,18.0,90,0.00,,,0.12,,2013-02-17 01:21:00,
2013-02-16 20:32:00,33.0,30.0,29.80,NNW,339,9.0,18.0,90,0.00,,,0.12,,2013-02-17 01:32:00,
2013-02-16 20:42:00,33.0,30.0,29.80,NNW,339,9.0,18.0,90,0.00,,,0.12,,2013-02-17 01:42:00,
2013-02-16 20:52:00,32.0,30.0,29.80,NNW,341,8.0,19.0,92,0.00,,,0.12,,2013-02-17 01:52:00,
2013-02-16 21:01:00,32.0,30.0,29.80,NNW,341,8.0,19.0,92,0.00,,,0.12,,2013-02-17 02:01:00,
2013-02-16 21:11:00,32.0,30.0,29.80,NNW,341,8.0,19.0,92,0.00,,,0.12,,2013-02-17 02:11:00,
2013-02-16 21:21:00,31.0,29.0,29.80,NE,44,8.0,18.0,94,0.00,,,0.12,,2013-02-17 02:21:00,
2013-02-16 21:32:00,31.0,29.0,29.80,NE,44,8.0,18.0,94,0.00,,,0.12,,2013-02-17 02:32:00,
2013-02-16 21:42:00,31.0,29.0,29.80,NE,44,8.0,18.0,94,0.00,,,0.12,,2013-02-17 02:42:00,
2013-02-16 21:52:00,31.0,29.0,29.78,North,8,8.0,15.0,94,0.00,,,0.12,,2013-02-17 02:52:00,
2013-02-16 22:02:00,31.0,29.0,29.78,North,8,8.0,15.0,94,0.00,,,0.12,,2013-02-17 03:02:00,
2013-02-16 22:11:00,31.0,29.0,29.78,North,8,8.0,15.0,94,0.00,,,0.12,,2013-02-17 03:11:00,
2013-02-16 22:21:00,31.0,29.0,29.77,NNW,328,8.0,18.0,93,0.00,,,0.12,,2013-02-17 03:21:00,
2013-02-16 22:32:00,31.0,29.0,29.77,NNW,328,8.0,18.0,93,0.00,,,0.12,,2013-02-17 03:32:00,
2013-02-16 22:42:00,31.0,29.0,29.77,NNW,328,8.0,18.0,93,0.00,,,0.12,,2013-02-17 03:42:00,
2013-02-16 22:52:00,30.0,28.0,29.77,NW,306,11.0,16.0,92,0.00,,,0.12,,2013-02-17 03:52:00,
2013-02-16 23:01:00,30.0,28.0,29.77,NW,306,11.0,16.0,92,0.00,,,0.12,,2013-02-17 04:01:00,
2013-02-16 23:11:00,30.0,28.0,29.77,NW,306,11.0,16.0,92,0.00,,,0.12,,2013-02-17 04:11:00,
2013-02-16 23:21:00,30.0,28.0,29.75,North,356,9.0,18.0,93,0.00,,,0.12,,2013-02-17 04:21:00,
2013-02-16 23:32:00,30.0,28.0,29.75,North,356,9.0,18.0,93,0.00,,,0.12,,2013-02-17 04:32:00,
2013-02-16 23:42:00,30.0,28.0,29.75,North,356,9.0,18.0,93,0.00,,,0.12,,2013-02-17 04:42:00,
2013-02-16 23:52:00,30.0,28.0,29.74,North,349,9.0,16.0,92,0.00,,,0.12,,2013-02-17 04:52:00,